Вернуться в каталог

STARLINK-35312

АктивенСвязьVLEO
NORAD 65866·PAYLOAD·🇺🇸 United States

Запущен Oct 3, 2025 с Vandenberg Space Force Base

Loading…

Ближайшие Пролёты (ближайшие 24 часа)

TLE

СвежийSource: CelesTrak SupGP

Эпоха: Sep 14, 2026, 21:16 UTC

1 65866C 25223N   26257.88659722 -.00051006  00000+0 -15070-2 0  2579
2 65866  53.1565 131.8564 0001285  97.5067 209.1399 15.34416083    15

Отслеживайте STARLINK-35312 в реальном времени с AllMySat

Download on the App Store